Time,TemperatureF,DewpointF,PressureIn,WindDirection,WindDirectionDegrees,WindSpeedMPH,WindSpeedGustMPH,Humidity,HourlyPrecipIn,Conditions,Clouds,dailyrainin,SoftwareType,DateUTC
2013-10-02 00:05:00,64.5,59.6,29.94,West,271,1.0,1.0,84,0.00,,,0.00,Wunderground v.1.15,2013-10-02 04:05:00,
2013-10-02 00:10:00,64.5,59.6,29.93,SE,125,1.0,1.0,84,0.00,,,0.00,Wunderground v.1.15,2013-10-02 04:10:00,
2013-10-02 00:15:00,64.4,59.5,29.93,WSW,252,0.0,1.0,84,0.00,,,0.00,Wunderground v.1.15,2013-10-02 04:15:00,
2013-10-02 00:20:00,64.4,59.5,29.93,NW,304,0.0,0.0,84,0.00,,,0.00,Wunderground v.1.15,2013-10-02 04:20:00,
2013-10-02 00:25:00,64.4,59.5,29.93,WSW,257,0.0,0.0,84,0.00,,,0.00,Wunderground v.1.15,2013-10-02 04:25:00,
2013-10-02 00:30:00,64.3,59.4,29.93,West,274,0.0,0.0,84,0.00,,,0.00,Wunderground v.1.15,2013-10-02 04:30:00,
2013-10-02 00:35:00,64.2,59.3,29.93,WNW,293,0.0,0.0,84,0.00,,,0.00,Wunderground v.1.15,2013-10-02 04:35:00,
2013-10-02 00:40:00,64.1,59.2,29.93,West,269,0.0,0.0,84,0.00,,,0.00,Wunderground v.1.15,2013-10-02 04:40:00,
2013-10-02 00:45:00,64.1,59.5,29.93,WSW,252,0.0,0.0,85,0.00,,,0.00,Wunderground v.1.15,2013-10-02 04:45:00,
2013-10-02 00:50:00,63.9,59.3,29.94,WSW,257,0.0,0.0,85,0.00,,,0.00,Wunderground v.1.15,2013-10-02 04:50:00,
2013-10-02 01:00:00,63.5,59.2,29.94,SW,225,0.0,0.0,86,0.00,,,0.00,Wunderground v.1.15,2013-10-02 05:00:00,
2013-10-02 01:05:00,63.4,59.1,29.94,West,273,0.0,1.0,86,0.00,,,0.00,Wunderground v.1.15,2013-10-02 05:05:00,
2013-10-02 01:15:00,63.1,58.8,29.94,West,277,0.0,0.0,86,0.00,,,0.00,Wunderground v.1.15,2013-10-02 05:15:00,
2013-10-02 01:20:00,63.0,59.1,29.94,WNW,302,0.0,0.0,87,0.00,,,0.00,Wunderground v.1.15,2013-10-02 05:20:00,
2013-10-02 01:25:00,63.0,59.1,29.94,SW,233,0.0,0.0,87,0.00,,,0.00,Wunderground v.1.15,2013-10-02 05:25:00,
2013-10-02 01:35:00,62.8,59.2,29.95,West,264,0.0,1.0,88,0.00,,,0.00,Wunderground v.1.15,2013-10-02 05:35:00,
2013-10-02 01:40:00,62.8,59.2,29.95,West,271,0.0,3.0,88,0.00,,,0.00,Wunderground v.1.15,2013-10-02 05:40:00,
2013-10-02 01:45:00,63.0,59.7,29.95,WNW,302,0.0,3.0,89,0.00,,,0.00,Wunderground v.1.15,2013-10-02 05:45:00,
2013-10-02 01:50:00,63.0,59.7,29.95,NW,306,1.0,1.0,89,0.00,,,0.00,Wunderground v.1.15,2013-10-02 05:50:00,
2013-10-02 01:55:00,63.0,59.7,29.94,WNW,302,0.0,1.0,89,0.00,,,0.00,Wunderground v.1.15,2013-10-02 05:55:00,
2013-10-02 02:05:00,63.0,59.7,29.94,NW,322,1.0,2.0,89,0.00,,,0.00,Wunderground v.1.15,2013-10-02 06:05:00,
2013-10-02 02:15:00,63.2,60.2,29.94,WNW,294,1.0,1.0,90,0.00,,,0.00,Wunderground v.1.15,2013-10-02 06:15:00,
2013-10-02 02:20:00,63.2,59.9,29.94,WNW,290,1.0,1.0,89,0.00,,,0.00,Wunderground v.1.15,2013-10-02 06:20:00,
2013-10-02 02:25:00,63.2,59.9,29.94,WNW,300,1.0,1.0,89,0.00,,,0.00,Wunderground v.1.15,2013-10-02 06:25:00,
2013-10-02 02:30:00,63.1,60.1,29.94,WNW,301,1.0,1.0,90,0.00,,,0.00,Wunderground v.1.15,2013-10-02 06:30:00,
2013-10-02 02:40:00,62.9,59.9,29.94,WSW,252,0.0,3.0,90,0.00,,,0.00,Wunderground v.1.15,2013-10-02 06:40:00,
2013-10-02 02:45:00,62.9,59.9,29.94,WNW,283,1.0,3.0,90,0.00,,,0.00,Wunderground v.1.15,2013-10-02 06:45:00,
2013-10-02 02:50:00,62.8,59.8,29.94,NNW,339,1.0,1.0,90,0.00,,,0.00,Wunderground v.1.15,2013-10-02 06:50:00,
2013-10-02 02:55:00,62.6,59.6,29.94,WSW,246,1.0,1.0,90,0.00,,,0.00,Wunderground v.1.15,2013-10-02 06:55:00,
2013-10-02 03:00:00,62.6,59.6,29.94,NW,311,1.0,3.0,90,0.00,,,0.00,Wunderground v.1.15,2013-10-02 07:00:00,
2013-10-02 03:05:00,62.6,59.6,29.94,WNW,288,1.0,3.0,90,0.00,,,0.00,Wunderground v.1.15,2013-10-02 07:05:00,
2013-10-02 03:15:00,62.7,59.7,29.94,WNW,290,1.0,2.0,90,0.00,,,0.00,Wunderground v.1.15,2013-10-02 07:15:00,
2013-10-02 03:25:00,62.8,59.8,29.94,WNW,297,1.0,1.0,90,0.00,,,0.00,Wunderground v.1.15,2013-10-02 07:25:00,
2013-10-02 03:30:00,62.8,59.8,29.94,WNW,288,0.0,1.0,90,0.00,,,0.00,Wunderground v.1.15,2013-10-02 07:30:00,
2013-10-02 03:35:00,62.8,59.8,29.94,WSW,255,1.0,1.0,90,0.00,,,0.00,Wunderground v.1.15,2013-10-02 07:35:00,
2013-10-02 03:40:00,62.9,60.2,29.94,West,276,1.0,1.0,91,0.00,,,0.00,Wunderground v.1.15,2013-10-02 07:40:00,
2013-10-02 03:50:00,62.8,59.8,29.94,WNW,290,1.0,2.0,90,0.00,,,0.00,Wunderground v.1.15,2013-10-02 07:50:00,
2013-10-02 03:55:00,62.8,59.8,29.94,WNW,285,1.0,2.0,90,0.00,,,0.00,Wunderground v.1.15,2013-10-02 07:55:00,
2013-10-02 04:00:00,62.7,59.7,29.94,WNW,302,1.0,3.0,90,0.00,,,0.00,Wunderground v.1.15,2013-10-02 08:00:00,
2013-10-02 04:05:00,62.6,59.6,29.94,WNW,290,2.0,3.0,90,0.00,,,0.00,Wunderground v.1.15,2013-10-02 08:05:00,
2013-10-02 04:10:00,62.6,59.6,29.94,West,280,2.0,4.0,90,0.00,,,0.00,Wunderground v.1.15,2013-10-02 08:10:00,
2013-10-02 04:20:00,62.6,59.6,29.94,NW,309,2.0,3.0,90,0.00,,,0.00,Wunderground v.1.15,2013-10-02 08:20:00,
2013-10-02 04:25:00,62.6,59.6,29.94,NW,311,2.0,4.0,90,0.00,,,0.00,Wunderground v.1.15,2013-10-02 08:25:00,
2013-10-02 04:35:00,62.6,59.6,29.94,NW,307,3.0,3.0,90,0.00,,,0.00,Wunderground v.1.15,2013-10-02 08:35:00,
2013-10-02 04:40:00,62.5,59.5,29.94,WNW,293,2.0,2.0,90,0.00,,,0.00,Wunderground v.1.15,2013-10-02 08:40:00,
2013-10-02 04:45:00,62.3,59.3,29.94,WNW,297,2.0,2.0,90,0.00,,,0.00,Wunderground v.1.15,2013-10-02 08:45:00,
2013-10-02 04:55:00,62.1,59.1,29.94,WNW,300,2.0,4.0,90,0.00,,,0.00,Wunderground v.1.15,2013-10-02 08:55:00,
2013-10-02 05:00:00,62.1,59.1,29.94,NNW,333,2.0,3.0,90,0.00,,,0.00,Wunderground v.1.15,2013-10-02 09:00:00,
2013-10-02 05:05:00,62.2,58.9,29.94,NW,311,2.0,3.0,89,0.00,,,0.00,Wunderground v.1.15,2013-10-02 09:05:00,
2013-10-02 05:10:00,62.3,59.0,29.94,NW,315,3.0,5.0,89,0.00,,,0.00,Wunderground v.1.15,2013-10-02 09:10:00,
2013-10-02 05:15:00,62.4,58.8,29.94,WNW,302,3.0,5.0,88,0.00,,,0.00,Wunderground v.1.15,2013-10-02 09:15:00,
2013-10-02 05:20:00,62.5,58.9,29.94,NW,308,3.0,3.0,88,0.00,,,0.00,Wunderground v.1.15,2013-10-02 09:20:00,
2013-10-02 05:30:00,62.5,58.9,29.94,West,270,2.0,2.0,88,0.00,,,0.00,Wunderground v.1.15,2013-10-02 09:30:00,
2013-10-02 05:35:00,62.4,58.8,29.95,NW,311,2.0,2.0,88,0.00,,,0.00,Wunderground v.1.15,2013-10-02 09:35:00,
2013-10-02 05:45:00,62.0,58.7,29.95,West,276,1.0,2.0,89,0.00,,,0.00,Wunderground v.1.15,2013-10-02 09:45:00,
2013-10-02 05:50:00,61.8,58.5,29.95,WNW,283,1.0,1.0,89,0.00,,,0.00,Wunderground v.1.15,2013-10-02 09:50:00,
2013-10-02 05:55:00,61.6,58.3,29.95,NW,305,2.0,2.0,89,0.00,,,0.00,Wunderground v.1.15,2013-10-02 09:55:00,
2013-10-02 06:05:00,61.4,58.4,29.95,West,267,2.0,2.0,90,0.00,,,0.00,Wunderground v.1.15,2013-10-02 10:05:00,
2013-10-02 06:10:00,61.4,58.4,29.95,WNW,302,2.0,4.0,90,0.00,,,0.00,Wunderground v.1.15,2013-10-02 10:10:00,
2013-10-02 06:15:00,61.3,58.3,29.96,WNW,293,2.0,4.0,90,0.00,,,0.00,Wunderground v.1.15,2013-10-02 10:15:00,
2013-10-02 06:20:00,61.3,58.3,29.96,NW,304,2.0,2.0,90,0.00,,,0.00,Wunderground v.1.15,2013-10-02 10:20:00,
2013-10-02 06:25:00,61.3,58.3,29.96,WNW,290,2.0,2.0,90,0.00,,,0.00,Wunderground v.1.15,2013-10-02 10:25:00,
2013-10-02 06:35:00,61.3,58.3,29.96,NW,304,3.0,5.0,90,0.00,,,0.00,Wunderground v.1.15,2013-10-02 10:35:00,
2013-10-02 06:40:00,61.2,58.2,29.96,WNW,302,3.0,3.0,90,0.00,,,0.00,Wunderground v.1.15,2013-10-02 10:40:00,
2013-10-02 06:45:00,61.1,58.1,29.96,West,280,3.0,3.0,90,0.00,,,0.00,Wunderground v.1.15,2013-10-02 10:45:00,
2013-10-02 06:55:00,61.0,58.0,29.96,NW,311,2.0,4.0,90,0.00,,,0.00,Wunderground v.1.15,2013-10-02 10:55:00,
2013-10-02 07:00:00,61.1,58.1,29.96,WNW,293,2.0,2.0,90,0.00,,,0.00,Wunderground v.1.15,2013-10-02 11:00:00,
2013-10-02 07:10:00,61.0,58.0,29.97,NW,304,2.0,4.0,90,0.00,,,0.00,Wunderground v.1.15,2013-10-02 11:10:00,
2013-10-02 07:15:00,61.2,57.9,29.97,NW,305,3.0,4.0,89,0.00,,,0.00,Wunderground v.1.15,2013-10-02 11:15:00,
2013-10-02 07:20:00,61.4,58.1,29.97,NNW,330,3.0,3.0,89,0.00,,,0.00,Wunderground v.1.15,2013-10-02 11:20:00,
2013-10-02 07:25:00,61.7,58.4,29.97,WNW,290,3.0,3.0,89,0.00,,,0.00,Wunderground v.1.15,2013-10-02 11:25:00,
2013-10-02 07:30:00,62.0,58.4,29.97,NW,314,3.0,3.0,88,0.00,,,0.00,Wunderground v.1.15,2013-10-02 11:30:00,
2013-10-02 07:35:00,62.2,58.3,29.97,WNW,297,4.0,5.0,87,0.00,,,0.00,Wunderground v.1.15,2013-10-02 11:35:00,
2013-10-02 07:45:00,62.8,58.5,29.97,WNW,302,3.0,4.0,86,0.00,,,0.00,Wunderground v.1.15,2013-10-02 11:45:00,
2013-10-02 07:50:00,63.1,58.8,29.97,West,260,2.0,3.0,86,0.00,,,0.00,Wunderground v.1.15,2013-10-02 11:50:00,
2013-10-02 07:55:00,63.3,58.7,29.97,NW,307,3.0,4.0,85,0.00,,,0.00,Wunderground v.1.15,2013-10-02 11:55:00,
2013-10-02 08:05:00,64.0,59.1,29.97,WNW,291,3.0,3.0,84,0.00,,,0.00,Wunderground v.1.15,2013-10-02 12:05:00,
2013-10-02 08:10:00,64.3,59.0,29.97,WNW,299,2.0,2.0,83,0.00,,,0.00,Wunderground v.1.15,2013-10-02 12:10:00,
2013-10-02 08:20:00,65.0,59.4,29.97,WNW,291,1.0,2.0,82,0.00,,,0.00,Wunderground v.1.15,2013-10-02 12:20:00,
2013-10-02 08:25:00,65.3,59.7,29.97,WSW,255,1.0,2.0,82,0.00,,,0.00,Wunderground v.1.15,2013-10-02 12:25:00,
2013-10-02 08:30:00,65.6,60.0,29.97,WNW,299,2.0,4.0,82,0.00,,,0.00,Wunderground v.1.15,2013-10-02 12:30:00,
2013-10-02 08:35:00,65.8,59.8,29.98,WNW,288,2.0,4.0,81,0.00,,,0.00,Wunderground v.1.15,2013-10-02 12:35:00,
2013-10-02 08:40:00,66.2,60.2,29.98,NW,312,3.0,3.0,81,0.00,,,0.00,Wunderground v.1.15,2013-10-02 12:40:00,
2013-10-02 08:50:00,67.0,60.6,29.98,WNW,294,2.0,2.0,80,0.00,,,0.00,Wunderground v.1.15,2013-10-02 12:50:00,
2013-10-02 08:55:00,67.5,60.4,29.98,WNW,294,2.0,2.0,78,0.00,,,0.00,Wunderground v.1.15,2013-10-02 12:55:00,
2013-10-02 09:00:00,68.0,60.9,29.98,WNW,294,2.0,2.0,78,0.00,,,0.00,Wunderground v.1.15,2013-10-02 13:00:00,
2013-10-02 09:05:00,68.4,60.9,29.98,West,274,1.0,2.0,77,0.00,,,0.00,Wunderground v.1.15,2013-10-02 13:05:00,
2013-10-02 09:15:00,69.2,61.3,29.99,NNW,330,1.0,4.0,76,0.00,,,0.00,Wunderground v.1.15,2013-10-02 13:15:00,
2013-10-02 09:25:00,70.1,61.4,29.99,WNW,302,2.0,2.0,74,0.00,,,0.00,Wunderground v.1.15,2013-10-02 13:25:00,
2013-10-02 09:30:00,70.5,61.8,29.99,WNW,296,2.0,3.0,74,0.00,,,0.00,Wunderground v.1.15,2013-10-02 13:30:00,
2013-10-02 09:35:00,71.0,62.3,29.99,WNW,288,2.0,3.0,74,0.00,,,0.00,Wunderground v.1.15,2013-10-02 13:35:00,
2013-10-02 09:40:00,71.4,62.3,29.99,NNW,340,2.0,2.0,73,0.00,,,0.00,Wunderground v.1.15,2013-10-02 13:40:00,
2013-10-02 09:45:00,71.7,62.2,29.99,NW,317,2.0,3.0,72,0.00,,,0.00,Wunderground v.1.15,2013-10-02 13:45:00,
2013-10-02 09:50:00,71.9,62.0,29.99,West,273,2.0,3.0,71,0.00,,,0.00,Wunderground v.1.15,2013-10-02 13:50:00,
2013-10-02 10:00:00,72.3,62.4,29.99,NW,313,4.0,5.0,71,0.00,,,0.00,Wunderground v.1.15,2013-10-02 14:00:00,
2013-10-02 10:05:00,72.6,62.7,29.99,NW,322,4.0,5.0,71,0.00,,,0.00,Wunderground v.1.15,2013-10-02 14:05:00,
2013-10-02 10:10:00,72.9,62.9,29.99,NW,325,3.0,5.0,71,0.00,,,0.00,Wunderground v.1.15,2013-10-02 14:10:00,
2013-10-02 10:15:00,73.1,62.7,29.99,SW,233,4.0,5.0,70,0.00,,,0.00,Wunderground v.1.15,2013-10-02 14:15:00,
2013-10-02 10:25:00,73.6,62.4,29.99,WSW,257,4.0,4.0,68,0.00,,,0.00,Wunderground v.1.15,2013-10-02 14:25:00,
2013-10-02 10:35:00,74.1,62.4,29.99,WNW,302,4.0,5.0,67,0.00,,,0.00,Wunderground v.1.15,2013-10-02 14:35:00,
2013-10-02 10:40:00,74.2,62.5,29.98,West,277,4.0,4.0,67,0.00,,,0.00,Wunderground v.1.15,2013-10-02 14:40:00,
2013-10-02 10:45:00,74.4,62.7,29.98,NW,316,4.0,8.0,67,0.00,,,0.00,Wunderground v.1.15,2013-10-02 14:45:00,
2013-10-02 10:50:00,74.5,62.8,29.98,NW,314,5.0,6.0,67,0.00,,,0.00,Wunderground v.1.15,2013-10-02 14:50:00,
2013-10-02 10:55:00,74.5,62.8,29.98,NNW,328,6.0,6.0,67,0.00,,,0.00,Wunderground v.1.15,2013-10-02 14:55:00,
2013-10-02 11:05:00,75.0,63.3,29.98,NW,322,5.0,7.0,67,0.00,,,0.00,Wunderground v.1.15,2013-10-02 15:05:00,
2013-10-02 11:10:00,75.3,63.2,29.98,NNW,336,5.0,5.0,66,0.00,,,0.00,Wunderground v.1.15,2013-10-02 15:10:00,
2013-10-02 11:20:00,75.5,63.3,29.97,NW,322,6.0,7.0,66,0.00,,,0.00,Wunderground v.1.15,2013-10-02 15:20:00,
2013-10-02 11:25:00,75.4,62.8,29.97,NW,306,7.0,9.0,65,0.00,,,0.00,Wunderground v.1.15,2013-10-02 15:25:00,
2013-10-02 11:30:00,75.5,62.5,29.97,NNW,336,8.0,9.0,64,0.00,,,0.00,Wunderground v.1.15,2013-10-02 15:30:00,
2013-10-02 11:40:00,75.9,63.7,29.97,NNW,334,7.0,9.0,66,0.00,,,0.00,Wunderground v.1.15,2013-10-02 15:40:00,
2013-10-02 11:45:00,75.9,63.3,29.97,NW,314,7.0,10.0,65,0.00,,,0.00,Wunderground v.1.15,2013-10-02 15:45:00,
2013-10-02 11:50:00,75.9,62.8,29.97,NW,305,7.0,7.0,64,0.00,,,0.00,Wunderground v.1.15,2013-10-02 15:50:00,
2013-10-02 11:55:00,76.0,63.4,29.97,NW,314,7.0,7.0,65,0.00,,,0.00,Wunderground v.1.15,2013-10-02 15:55:00,
2013-10-02 12:00:00,76.3,63.7,29.97,NW,309,5.0,5.0,65,0.00,,,0.00,Wunderground v.1.15,2013-10-02 16:00:00,
2013-10-02 12:05:00,76.4,63.3,29.97,NW,319,4.0,5.0,64,0.00,,,0.00,Wunderground v.1.15,2013-10-02 16:05:00,
2013-10-02 12:15:00,76.8,63.2,29.96,NW,320,4.0,7.0,63,0.00,,,0.00,Wunderground v.1.15,2013-10-02 16:15:00,
2013-10-02 12:20:00,76.8,63.2,29.96,NNW,330,6.0,8.0,63,0.00,,,0.00,Wunderground v.1.15,2013-10-02 16:20:00,
2013-10-02 12:25:00,77.0,63.4,29.96,NW,312,8.0,8.0,63,0.00,,,0.00,Wunderground v.1.15,2013-10-02 16:25:00,
2013-10-02 12:30:00,77.2,63.6,29.96,NW,322,7.0,7.0,63,0.00,,,0.00,Wunderground v.1.15,2013-10-02 16:30:00,
2013-10-02 12:35:00,77.2,63.6,29.96,West,261,6.0,7.0,63,0.00,,,0.00,Wunderground v.1.15,2013-10-02 16:35:00,
2013-10-02 12:40:00,77.5,63.5,29.96,WNW,299,5.0,8.0,62,0.00,,,0.00,Wunderground v.1.15,2013-10-02 16:40:00,
2013-10-02 12:50:00,77.7,63.6,29.96,NW,304,7.0,8.0,62,0.00,,,0.00,Wunderground v.1.15,2013-10-02 16:50:00,
2013-10-02 12:55:00,78.1,64.5,29.95,NE,36,6.0,8.0,63,0.00,,,0.00,Wunderground v.1.15,2013-10-02 16:55:00,
2013-10-02 13:00:00,78.3,65.1,29.95,WNW,297,4.0,4.0,64,0.00,,,0.00,Wunderground v.1.15,2013-10-02 17:00:00,
2013-10-02 13:05:00,78.6,64.0,29.95,SSW,197,3.0,4.0,61,0.00,,,0.00,Wunderground v.1.15,2013-10-02 17:05:00,
2013-10-02 13:10:00,78.9,64.3,29.94,NW,322,2.0,2.0,61,0.00,,,0.00,Wunderground v.1.15,2013-10-02 17:10:00,
2013-10-02 13:20:00,79.6,64.5,29.93,WNW,300,2.0,2.0,60,0.00,,,0.00,Wunderground v.1.15,2013-10-02 17:20:00,
2013-10-02 13:25:00,79.7,64.1,29.93,WNW,291,2.0,3.0,59,0.00,,,0.00,Wunderground v.1.15,2013-10-02 17:25:00,
2013-10-02 13:35:00,79.7,65.1,29.93,NW,321,2.0,6.0,61,0.00,,,0.00,Wunderground v.1.15,2013-10-02 17:35:00,
2013-10-02 13:40:00,79.9,64.3,29.93,ENE,72,3.0,3.0,59,0.00,,,0.00,Wunderground v.1.15,2013-10-02 17:40:00,
2013-10-02 13:45:00,80.3,64.2,29.93,NNW,330,2.0,3.0,58,0.00,,,0.00,Wunderground v.1.15,2013-10-02 17:45:00,
2013-10-02 13:55:00,80.9,64.2,29.92,WSW,255,2.0,2.0,57,0.00,,,0.00,Wunderground v.1.15,2013-10-02 17:55:00,
2013-10-02 14:00:00,80.7,64.1,29.92,NW,304,2.0,5.0,57,0.00,,,0.00,Wunderground v.1.15,2013-10-02 18:00:00,
2013-10-02 14:05:00,80.3,63.7,29.92,SSW,201,2.0,5.0,57,0.00,,,0.00,Wunderground v.1.15,2013-10-02 18:05:00,
2013-10-02 14:10:00,80.7,64.5,29.92,North,358,2.0,3.0,58,0.00,,,0.00,Wunderground v.1.15,2013-10-02 18:10:00,
2013-10-02 14:15:00,81.3,64.1,29.92,WNW,302,2.0,4.0,56,0.00,,,0.00,Wunderground v.1.15,2013-10-02 18:15:00,
2013-10-02 14:20:00,81.2,64.0,29.92,WNW,291,3.0,3.0,56,0.00,,,0.00,Wunderground v.1.15,2013-10-02 18:20:00,
2013-10-02 14:30:00,81.3,63.1,29.92,West,276,2.0,2.0,54,0.00,,,0.00,Wunderground v.1.15,2013-10-02 18:30:00,
2013-10-02 14:35:00,81.4,63.2,29.92,NNW,333,2.0,2.0,54,0.00,,,0.00,Wunderground v.1.15,2013-10-02 18:35:00,
2013-10-02 14:45:00,81.2,63.0,29.91,NW,306,4.0,6.0,54,0.00,,,0.00,Wunderground v.1.15,2013-10-02 18:45:00,
2013-10-02 14:50:00,81.2,62.4,29.91,NW,312,4.0,5.0,53,0.00,,,0.00,Wunderground v.1.15,2013-10-02 18:50:00,
2013-10-02 14:55:00,81.0,63.3,29.91,North,358,5.0,7.0,55,0.00,,,0.00,Wunderground v.1.15,2013-10-02 18:55:00,
2013-10-02 15:05:00,81.7,63.4,29.91,NW,306,5.0,6.0,54,0.00,,,0.00,Wunderground v.1.15,2013-10-02 19:05:00,
2013-10-02 15:10:00,82.1,63.3,29.91,WNW,285,2.0,2.0,53,0.00,,,0.00,Wunderground v.1.15,2013-10-02 19:10:00,
2013-10-02 15:15:00,82.3,63.5,29.91,NW,321,2.0,7.0,53,0.00,,,0.00,Wunderground v.1.15,2013-10-02 19:15:00,
2013-10-02 15:20:00,81.7,62.9,29.91,WNW,288,4.0,4.0,53,0.00,,,0.00,Wunderground v.1.15,2013-10-02 19:20:00,
2013-10-02 15:25:00,81.6,63.9,29.91,WNW,302,5.0,5.0,55,0.00,,,0.00,Wunderground v.1.15,2013-10-02 19:25:00,
2013-10-02 15:35:00,81.7,63.4,29.91,West,259,4.0,4.0,54,0.00,,,0.00,Wunderground v.1.15,2013-10-02 19:35:00,
2013-10-02 15:40:00,81.6,63.3,29.91,WNW,300,5.0,7.0,54,0.00,,,0.00,Wunderground v.1.15,2013-10-02 19:40:00,
2013-10-02 15:45:00,81.6,63.3,29.91,WSW,245,5.0,7.0,54,0.00,,,0.00,Wunderground v.1.15,2013-10-02 19:45:00,
2013-10-02 15:55:00,81.9,63.6,29.90,WNW,302,4.0,12.0,54,0.00,,,0.00,Wunderground v.1.15,2013-10-02 19:55:00,
2013-10-02 16:00:00,81.8,63.5,29.90,West,269,5.0,5.0,54,0.00,,,0.00,Wunderground v.1.15,2013-10-02 20:00:00,
2013-10-02 16:10:00,82.1,63.3,29.90,WNW,285,4.0,5.0,53,0.00,,,0.00,Wunderground v.1.15,2013-10-02 20:10:00,
2013-10-02 16:15:00,81.9,63.1,29.90,WSW,253,4.0,5.0,53,0.00,,,0.00,Wunderground v.1.15,2013-10-02 20:15:00,
2013-10-02 16:20:00,82.3,64.0,29.90,NW,312,3.0,3.0,54,0.00,,,0.00,Wunderground v.1.15,2013-10-02 20:20:00,
2013-10-02 16:25:00,82.5,63.1,29.90,West,264,2.0,3.0,52,0.00,,,0.00,Wunderground v.1.15,2013-10-02 20:25:00,
2013-10-02 16:30:00,82.7,63.3,29.90,SSW,198,3.0,3.0,52,0.00,,,0.00,Wunderground v.1.15,2013-10-02 20:30:00,
2013-10-02 16:35:00,82.6,64.3,29.90,WNW,288,3.0,3.0,54,0.00,,,0.00,Wunderground v.1.15,2013-10-02 20:35:00,
2013-10-02 16:45:00,82.7,63.8,29.90,SSW,198,3.0,3.0,53,0.00,,,0.00,Wunderground v.1.15,2013-10-02 20:45:00,
2013-10-02 16:50:00,82.6,63.7,29.90,NW,310,2.0,11.0,53,0.00,,,0.00,Wunderground v.1.15,2013-10-02 20:50:00,
2013-10-02 16:55:00,82.3,63.5,29.90,WNW,283,3.0,11.0,53,0.00,,,0.00,Wunderground v.1.15,2013-10-02 20:55:00,
2013-10-02 17:05:00,82.0,63.7,29.90,WNW,288,5.0,5.0,54,0.00,,,0.00,Wunderground v.1.15,2013-10-02 21:05:00,
2013-10-02 17:10:00,81.8,63.0,29.90,NW,317,5.0,5.0,53,0.00,,,0.00,Wunderground v.1.15,2013-10-02 21:10:00,
2013-10-02 17:20:00,81.4,63.2,29.91,WNW,299,5.0,5.0,54,0.00,,,0.00,Wunderground v.1.15,2013-10-02 21:20:00,
2013-10-02 17:25:00,81.2,63.5,29.90,NW,305,3.0,5.0,55,0.00,,,0.00,Wunderground v.1.15,2013-10-02 21:25:00,
2013-10-02 17:30:00,81.2,63.5,29.90,WNW,294,4.0,8.0,55,0.00,,,0.00,Wunderground v.1.15,2013-10-02 21:30:00,
2013-10-02 17:35:00,81.0,63.8,29.90,NW,311,5.0,8.0,56,0.00,,,0.00,Wunderground v.1.15,2013-10-02 21:35:00,
2013-10-02 17:40:00,80.7,63.5,29.91,NNW,327,3.0,5.0,56,0.00,,,0.00,Wunderground v.1.15,2013-10-02 21:40:00,
2013-10-02 17:50:00,80.5,63.9,29.91,NW,309,3.0,3.0,57,0.00,,,0.00,Wunderground v.1.15,2013-10-02 21:50:00,
2013-10-02 17:55:00,80.4,63.8,29.91,West,264,2.0,3.0,57,0.00,,,0.00,Wunderground v.1.15,2013-10-02 21:55:00,
2013-10-02 18:00:00,80.2,64.1,29.91,WSW,246,0.0,0.0,58,0.00,,,0.00,Wunderground v.1.15,2013-10-02 22:00:00,
2013-10-02 18:05:00,79.9,63.8,29.91,West,269,0.0,1.0,58,0.00,,,0.00,Wunderground v.1.15,2013-10-02 22:05:00,
2013-10-02 18:15:00,79.3,63.7,29.91,NW,319,0.0,0.0,59,0.00,,,0.00,Wunderground v.1.15,2013-10-02 22:15:00,
2013-10-02 18:20:00,78.9,63.8,29.91,WSW,240,0.0,1.0,60,0.00,,,0.00,Wunderground v.1.15,2013-10-02 22:20:00,
2013-10-02 18:25:00,78.6,64.0,29.91,WSW,249,0.0,1.0,61,0.00,,,0.00,Wunderground v.1.15,2013-10-02 22:25:00,
2013-10-02 18:30:00,78.2,63.6,29.92,WSW,249,0.0,0.0,61,0.00,,,0.00,Wunderground v.1.15,2013-10-02 22:30:00,
2013-10-02 18:35:00,77.7,63.6,29.92,WSW,249,0.0,0.0,62,0.00,,,0.00,Wunderground v.1.15,2013-10-02 22:35:00,
2013-10-02 18:40:00,77.2,63.6,29.92,West,271,0.0,0.0,63,0.00,,,0.00,Wunderground v.1.15,2013-10-02 22:40:00,
2013-10-02 18:45:00,76.8,63.7,29.92,West,271,0.0,0.0,64,0.00,,,0.00,Wunderground v.1.15,2013-10-02 22:45:00,
2013-10-02 18:55:00,76.2,63.6,29.92,West,271,0.0,1.0,65,0.00,,,0.00,Wunderground v.1.15,2013-10-02 22:55:00,
2013-10-02 19:00:00,75.9,63.7,29.92,West,270,0.0,0.0,66,0.00,,,0.00,Wunderground v.1.15,2013-10-02 23:00:00,
2013-10-02 19:05:00,75.7,63.5,29.92,West,270,0.0,0.0,66,0.00,,,0.00,Wunderground v.1.15,2013-10-02 23:05:00,
2013-10-02 19:10:00,75.5,63.8,29.93,West,268,0.0,0.0,67,0.00,,,0.00,Wunderground v.1.15,2013-10-02 23:10:00,
2013-10-02 19:20:00,75.0,63.7,29.93,West,266,0.0,0.0,68,0.00,,,0.00,Wunderground v.1.15,2013-10-02 23:20:00,
2013-10-02 19:25:00,74.7,63.9,29.93,West,266,0.0,1.0,69,0.00,,,0.00,Wunderground v.1.15,2013-10-02 23:25:00,
2013-10-02 19:30:00,74.6,63.8,29.93,WNW,288,0.0,0.0,69,0.00,,,0.00,Wunderground v.1.15,2013-10-02 23:30:00,
2013-10-02 19:40:00,74.3,63.9,29.93,WNW,285,0.0,0.0,70,0.00,,,0.00,Wunderground v.1.15,2013-10-02 23:40:00,
2013-10-02 19:45:00,74.2,63.8,29.94,WSW,255,0.0,0.0,70,0.00,,,0.00,Wunderground v.1.15,2013-10-02 23:45:00,
2013-10-02 19:50:00,73.9,63.5,29.94,WSW,255,0.0,0.0,70,0.00,,,0.00,Wunderground v.1.15,2013-10-02 23:50:00,
2013-10-02 19:55:00,73.9,63.9,29.94,West,263,0.0,0.0,71,0.00,,,0.00,Wunderground v.1.15,2013-10-02 23:55:00,
2013-10-02 20:00:00,73.9,63.9,29.94,WSW,240,0.0,0.0,71,0.00,,,0.00,Wunderground v.1.15,2013-10-03 00:00:00,
2013-10-02 20:05:00,73.7,63.7,29.94,WSW,240,0.0,0.0,71,0.00,,,0.00,Wunderground v.1.15,2013-10-03 00:05:00,
2013-10-02 20:15:00,73.3,63.7,29.95,WSW,240,0.0,0.0,72,0.00,,,0.00,Wunderground v.1.15,2013-10-03 00:15:00,
2013-10-02 20:25:00,73.1,63.9,29.95,WNW,291,0.0,0.0,73,0.00,,,0.00,Wunderground v.1.15,2013-10-03 00:25:00,
2013-10-02 20:30:00,73.1,63.9,29.95,West,280,0.0,0.0,73,0.00,,,0.00,Wunderground v.1.15,2013-10-03 00:30:00,
2013-10-02 20:35:00,73.0,63.8,29.95,West,278,0.0,0.0,73,0.00,,,0.00,Wunderground v.1.15,2013-10-03 00:35:00,
2013-10-02 20:40:00,72.8,63.6,29.95,SSW,210,0.0,0.0,73,0.00,,,0.00,Wunderground v.1.15,2013-10-03 00:40:00,
2013-10-02 20:45:00,72.7,63.9,29.95,West,269,0.0,0.0,74,0.00,,,0.00,Wunderground v.1.15,2013-10-03 00:45:00,
2013-10-02 20:55:00,72.6,63.8,29.96,West,267,0.0,0.0,74,0.00,,,0.00,Wunderground v.1.15,2013-10-03 00:55:00,
2013-10-02 21:00:00,72.5,63.7,29.96,WNW,290,0.0,2.0,74,0.00,,,0.00,Wunderground v.1.15,2013-10-03 01:00:00,
2013-10-02 21:05:00,72.5,64.1,29.96,WNW,288,0.0,2.0,75,0.00,,,0.00,Wunderground v.1.15,2013-10-03 01:05:00,
2013-10-02 21:15:00,72.4,64.0,29.96,South,173,0.0,0.0,75,0.00,,,0.00,Wunderground v.1.15,2013-10-03 01:15:00,
2013-10-02 21:20:00,72.1,63.7,29.96,West,274,0.0,0.0,75,0.00,,,0.00,Wunderground v.1.15,2013-10-03 01:20:00,
2013-10-02 21:25:00,71.9,63.9,29.96,North,354,0.0,0.0,76,0.00,,,0.00,Wunderground v.1.15,2013-10-03 01:25:00,
2013-10-02 21:35:00,71.6,63.6,29.96,WNW,283,0.0,0.0,76,0.00,,,0.00,Wunderground v.1.15,2013-10-03 01:35:00,
2013-10-02 21:40:00,71.4,63.8,29.96,SW,232,0.0,0.0,77,0.00,,,0.00,Wunderground v.1.15,2013-10-03 01:40:00,
2013-10-02 21:45:00,71.2,63.6,29.97,West,262,0.0,0.0,77,0.00,,,0.00,Wunderground v.1.15,2013-10-03 01:45:00,
2013-10-02 21:55:00,70.8,63.6,29.97,West,262,0.0,0.0,78,0.00,,,0.00,Wunderground v.1.15,2013-10-03 01:55:00,
2013-10-02 22:05:00,70.5,63.7,29.97,WSW,252,0.0,0.0,79,0.00,,,0.00,Wunderground v.1.15,2013-10-03 02:05:00,
2013-10-02 22:10:00,70.3,63.5,29.97,West,274,0.0,2.0,79,0.00,,,0.00,Wunderground v.1.15,2013-10-03 02:10:00,
2013-10-02 22:15:00,70.2,63.4,29.97,West,274,0.0,2.0,79,0.00,,,0.00,Wunderground v.1.15,2013-10-03 02:15:00,
2013-10-02 22:20:00,70.1,63.6,29.98,West,270,0.0,0.0,80,0.00,,,0.00,Wunderground v.1.15,2013-10-03 02:20:00,
2013-10-02 22:25:00,70.0,63.5,29.98,West,278,0.0,0.0,80,0.00,,,0.00,Wunderground v.1.15,2013-10-03 02:25:00,
2013-10-02 22:30:00,69.9,63.4,29.98,West,270,0.0,0.0,80,0.00,,,0.00,Wunderground v.1.15,2013-10-03 02:30:00,
2013-10-02 22:35:00,69.7,63.3,29.98,NW,307,0.0,0.0,80,0.00,,,0.00,Wunderground v.1.15,2013-10-03 02:35:00,
2013-10-02 22:40:00,69.5,63.4,29.98,WNW,302,0.0,0.0,81,0.00,,,0.00,Wunderground v.1.15,2013-10-03 02:40:00,
2013-10-02 22:50:00,69.4,63.3,29.98,SSW,200,0.0,0.0,81,0.00,,,0.00,Wunderground v.1.15,2013-10-03 02:50:00,
2013-10-02 22:55:00,69.3,63.2,29.98,West,276,0.0,0.0,81,0.00,,,0.00,Wunderground v.1.15,2013-10-03 02:55:00,
2013-10-02 23:05:00,69.1,63.4,29.98,NW,312,0.0,1.0,82,0.00,,,0.00,Wunderground v.1.15,2013-10-03 03:05:00,
2013-10-02 23:15:00,69.2,63.5,29.98,WNW,285,0.0,2.0,82,0.00,,,0.00,Wunderground v.1.15,2013-10-03 03:15:00,
2013-10-02 23:25:00,69.3,63.6,29.99,West,264,0.0,1.0,82,0.00,,,0.00,Wunderground v.1.15,2013-10-03 03:25:00,
2013-10-02 23:30:00,69.3,63.6,29.99,SW,218,0.0,0.0,82,0.00,,,0.00,Wunderground v.1.15,2013-10-03 03:30:00,
2013-10-02 23:35:00,69.4,63.7,29.99,SW,235,0.0,1.0,82,0.00,,,0.00,Wunderground v.1.15,2013-10-03 03:35:00,
2013-10-02 23:40:00,69.3,63.6,29.99,WSW,245,0.0,0.0,82,0.00,,,0.00,Wunderground v.1.15,2013-10-03 03:40:00,
2013-10-02 23:45:00,69.2,63.5,29.99,SW,235,0.0,1.0,82,0.00,,,0.00,Wunderground v.1.15,2013-10-03 03:45:00,
2013-10-02 23:55:00,69.2,63.8,29.99,West,260,1.0,1.0,83,0.00,,,0.00,Wunderground v.1.15,2013-10-03 03:55:00,